This demonstration page uses our WeatherBlox Daily Observations layout. Learn more.

Left ArrowRight Arrow

34.74481, -87.66753

Hourly Observations for December 28, 2019

Temp ( °F °C ) Dew Point ( °F °C ) Humidity (%) Winds ( mph kmh ) Pressure ( in mb ) Visibility ( mi km ) Precip ( " mm )
12:37 am 00:37 Cloudy with Rain 57 13.9 54 12.2 90 90 SE 6 9 30.14 1021 4 6 0.04 1.02
12:53 am 00:53 Cloudy with Light Rain 57 13.9 55 12.8 93 93 ESE 8 13 30.12 1020 4 6 0.05 1.27
1:53 am 01:53 Cloudy 58 14.4 55 12.8 90 90 ESE 6 9 30.12 1020 9 14 0.01 0.25
2:53 am 02:53 Cloudy 58 14.4 55 12.8 90 90 ESE 3 6 30.12 1020 9 14 0.00 0.00
3:53 am 03:53 Cloudy 58 14.4 56 13.3 93 93 ENE 3 6 30.12 1020 8 13 0.00 0.00
4:53 am 04:53 Cloudy 58 14.4 56 13.3 93 93 E 6 9 30.11 1020 9 14 0.00 0.00
5:53 am 05:53 Cloudy 58 14.4 55 12.8 90 90 ENE 5 7 30.11 1020 10 16 0.00 0.00
6:53 am 06:53 Mostly Cloudy 56 13.3 54 12.2 93 93 E 6 9 30.12 1020 7 11 0.00 0.00
7:53 am 07:53 Sunny 58 14.4 56 13.3 93 93 E 7 11 30.11 1020 10 16 0.00 0.00
8:53 am 08:53 Mostly Sunny 60 15.6 57 13.9 90 90 E 8 13 30.12 1020 10 16 0.00 0.00
9:53 am 09:53 Sunny 64 17.8 58 14.4 81 81 ESE 10 17 30.11 1020 10 16 0.00 0.00
10:53 am 10:53 Mostly Cloudy 66 18.9 58 14.4 75 75 SE 10 17 30.09 1019 10 16 0.00 0.00
11:02 am 11:02 Cloudy 66 18.9 59 15 78 78 SE 7 11 30.09 1019 10 16 0.00 0.00
11:53 am 11:53 Cloudy 67 19.4 59 15 76 76 SE 8 13 30.05 1018 10 16 0.00 0.00
12:33 pm 12:33 Mostly Cloudy 69 20.6 60 15.6 73 73 SE 9 15 30.02 1016 10 16 0.00 0.00
12:53 pm 12:53 Cloudy 69 20.6 60 15.6 73 73 SE 8 13 30.01 1016 10 16 0.00 0.00
1:31 pm 13:31 Cloudy 67 19.4 62 16.7 84 84 ESE 5 7 30.00 1016 10 16 0.02 0.51
1:53 pm 13:53 Mostly Cloudy 68 20 61 16.1 78 78 ESE 9 15 29.98 1015 10 16 0.02 0.51
2:13 pm 14:13 Mostly Cloudy 68 20 61 16.1 78 78 SE 8 13 29.99 1015 10 16 0.00 0.00
2:53 pm 14:53 Cloudy 68 20 60 15.6 76 76 ESE 8 13 29.98 1015 10 16 0.00 0.00
3:03 pm 15:03 Cloudy 67 19.4 61 16.1 81 81 SE 9 15 29.98 1015 10 16 0.00 0.00
3:29 pm 15:29 Cloudy 67 19.4 60 15.6 79 79 ESE 8 13 29.98 1015 10 16 0.00 0.00
3:53 pm 15:53 Cloudy 67 19.4 60 15.6 79 79 SE 12 19 29.97 1015 10 16 0.00 0.00
4:53 pm 16:53 Cloudy 67 19.4 60 15.6 79 79 SE 7 11 29.97 1015 10 16 0.00 0.00
5:53 pm 17:53 Cloudy 66 18.9 60 15.6 81 81 SE 6 9 29.97 1015 10 16 0.00 0.00
6:53 pm 18:53 Cloudy 67 19.4 61 16.1 81 81 SSE 9 15 29.96 1015 10 16 0.00 0.00
7:53 pm 19:53 Cloudy 66 18.9 61 16.1 84 84 SE 12 19 29.95 1014 10 16 0.00 0.00
8:00 pm 20:00 Cloudy 66 18.9 61 16.1 84 84 SE 12 19 29.95 1014 10 16 0.00 0.00
8:53 pm 20:53 Cloudy 66 18.9 61 16.1 84 84 SE 13 20 29.93 1014 10 16 0.00 0.00
9:53 pm 21:53 Cloudy 66 18.9 61 16.1 84 84 SSE 14 22 29.93 1014 10 16 0.00 0.00
10:53 pm 22:53 Cloudy 67 19.4 62 16.7 84 84 SSE 14 22 29.90 1012 10 16 0.00 0.00
11:53 pm 23:53 Cloudy 67 19.4 62 16.7 84 84 SSE 17 28 29.88 1012 10 16 0.00 0.00

Powered by AerisWeather